Weather in Abez

Russia / Komi Republic     66°31′15″N   61°45′22″E
temp.,
°C
wind,
m/s
gust,
m/s
humid.,
%
clouds,
%
prec.,
mm/h
press.,
hPa
HPBL,
m
5 march, fri
fri500:00−16n1197100 0.3 99120
03:00−17wnw2297100 0.5 99220
06:00−17w3396100 0.1 99231
09:00−16wsw239399 0.3 993217
12:00−15w348999 0.1 994348
15:00−16w2394100 0.1 996195
18:00−19wnw239892 0.1 99720
21:00−20wsw229894 0.1 99920
6 march, sat
sat600:00−21w229899 0.0 99920
03:00−21wsw229899 0.1 100020
06:00−22wsw239899 0.0 100020
09:00−19wsw3494100 0.1 1001239
12:00−18wsw348897 0.0 1002412
15:00−19w349599 0.1 100346
18:00−22w339899 0.1 100422
21:00−23w349895 0.1 100524
7 march, sun
sun700:00−26w3410083 0.0 100519
03:00−27w239989 0.0 100719
06:00−28wsw339899 0.0 100719
09:00−25wnw229594 0.1 1008164
12:00−24wsw229097 0.0 1009223
15:00−25nnw229386 0.0 101019
18:00−27nnw119889 0.0 101019
21:00−29nnw1110083 0.0 101119
8 march, mon
mon800:00−30nnw1110082 0.0 101119
03:00−29nnw1110088 0.1 101119
06:00−30nnw1110092 0.1 101019
09:00−26n229595 0.1 1010179
12:00−25n3391100 0.1 1010322
15:00−29n4595100 0.1 1010155
18:00−35nne449696 0.0 101128
21:00−36nne349696 0.0 101219
9 march, tue
tue900:00−38nne239761 0.0 101219
03:00−39nne229957 0.0 101219
06:00−40ne1110040 0.0 101318
09:00−35ne118923 0.0 1013108
12:00−32n118226 0.0 1013246
15:00−33w009131 0.0 101419
18:00−36ssw22950 0.0 101319
21:00−36sw33950 0.0 101219